Location: Igon
(43.1667°N, 0.2333°W)
Time: 14:20:54
(UTC+00:00)

ASTRO F (AKARI) - Pass Details

Date: 29 November 2020
Orbit: 398 x 519 km, 98.2° (Epoch: 22 January)

Event Time Altitude Azimuth Distance (km) Brightness Sun altitude
Rises 05:39:28 0° 14° (NNE) 2,321 8.0 -16.3°
Reaches altitude 10° 05:41:26 10° 15° (NNE) 1,462 7.0 -15.9°
Maximum altitude 05:44:32 80° 104° (ESE) 418 4.2 -15.4°
Drops below altitude 10° 05:47:41 10° 191° (S) 1,481 7.1 -14.8°
Sets 05:49:41 0° 193° (SSW) 2,355 8.1 -14.5°
